Location: Sungai Anya
(2.6167°N, 114.0500°E)
Time: 20:01:45
(UTC+00:00)

SL-16 R/B - Pass Details

Date: 19 October 2021
Orbit: 842 x 846 km, 71.0° (Epoch: 08 December)

Event Time Altitude Azimuth Distance (km) Brightness Sun altitude
Rises 10:19:54 0° 194° (SSW) 3,394 5.7 -3.2°
Reaches altitude 10° 10:22:20 10° 193° (SSW) 2,457 5.0 -3.8°
Maximum altitude 10:27:59 83° 106° (ESE) 850 2.2 -5.2°
Drops below altitude 10° 10:33:37 10° 18° (NNE) 2,451 4.4 -6.6°
Sets 10:36:03 0° 17° (NNE) 3,384 5.1 -7.2°
